Wind_Speed
33 31 31 30 29 28 27 25 26 25 25 26 26 26 27 25 24 24 22 25 23 26 27 27 27 25 25 26 26 27 35 42 41 35 34 24 28 21 25 28 24 17 10 11 14
35 34 34 35 33 31 30 28 27 28 29 27 28 29 30 27 25 23 25 25 27 27 26 26 24 26 27 27 28 31 40 42 39 32 32 27 26 24 27 27 29 25 13 7 7
37 36 33 34 33 35 34 32 32 32 34 32 31 30 31 29 28 27 19 14 15 16 16 17 20 23 26 28 30 34 42 37 37 30 28 28 28 23 28 30 23 30 27 20 12
42 42 39 39 38 35 36 34 34 35 35 37 34 32 34 30 20 16 14 14 15 14 16 15 17 20 22 27 25 35 37 33 34 31 30 31 27 27 27 30 26 26 30 30 26
42 42 40 39 40 40 36 39 37 38 37 36 37 36 36 35 22 27 26 24 24 24 25 24 23 23 22 19 20 30 30 27 25 22 25 28 30 30 32 29 30 29 30 32 34
44 41 36 45 43 41 39 39 39 36 38 39 39 39 37 36 28 24 21 20 22 22 22 20 19 20 21 22 24 22 16 21 22 22 25 30 33 31 34 32 33 34 36 36 37
47 46 48 47 48 41 37 36 34 34 35 38 40 42 42 25 30 30 24 20 20 18 19 18 20 22 22 22 24 25 28 27 24 23 27 28 40 37 34 34 37 37 38 38 41
53 42 51 46 47 44 39 38 38 38 39 40 40 43 47 27 34 28 23 19 19 18 17 19 20 25 24 23 20 21 23 26 22 18 17 19 42 30 28 26 27 29 34 41 39
47 51 46 43 45 42 39 38 37 37 38 38 38 41 39 30 26 24 25 19 19 19 19 20 25 26 25 25 25 22 24 25 27 19 15 16 40 27 24 27 32 32 31 32 36
46 56 48 44 39 36 39 33 35 36 37 36 37 34 26 24 18 17 16 17 16 17 20 22 24 27 28 28 21 23 20 20 19 11 12 22 40 33 30 31 33 34 36 37 36
43 48 57 46 41 40 36 32 33 33 39 34 30 28 24 20 17 17 14 13 14 20 23 21 21 26 26 23 21 23 24 26 19 14 24 25 36 38 35 36 35 34 34 34 35
42 42 41 42 43 42 38 28 27 33 34 33 32 36 19 18 19 18 17 18 20 22 20 21 26 18 13 12 11 13 18 22 22 17 21 27 42 39 38 34 31 31 38 39 36
41 43 42 39 37 35 37 31 32 29 30 36 31 30 26 27 22 17 21 17 21 24 25 26 14 14 14 13 13 14 18 21 26 25 27 34 42 39 36 35 31 33 29 37 36
50 51 45 37 39 37 35 26 24 12 12 21 26 30 27 30 30 21 18 15 21 22 20 18 20 22 16 15 13 22 14 20 24 24 22 15 15 43 26 14 30 23 30 29 27
59 50 50 43 37 31 26 20 15 11 4 4 17 16 25 32 14 21 14 9 10 13 21 12 7 10 15 16 10 15 11 14 17 22 32 11 8 35 31 18 16 27 34 29 29
40 34 29 26 28 28 23 22 18 10 9 8 16 18 23 25 19 21 17 11 7 11 16 17 14 14 12 15 16 17 16 13 18 21 10 30 10 16 13 23 30 28 31 40 43
22 25 26 27 26 26 27 21 16 9 5 11 17 21 22 27 21 18 19 16 11 9 14 11 13 12 14 17 16 14 16 3 4 1 6 10 11 11 29 17 23 35 35 38 32
13 15 22 24 23 24 23 25 11 10 5 10 14 22 18 18 16 14 18 17 15 13 9 8 4 7 10 3 8 13 14 11 6 4 7 18 8 10 22 20 23 26 35 29 18
13 19 21 27 28 30 23 25 13 4 15 12 20 23 13 16 14 21 15 16 12 9 8 5 7 11 9 7 9 5 10 18 26 22 8 8 17 24 15 13 20 35 28 25 22
18 20 22 23 22 20 23 19 17 10 12 16 13 13 12 15 16 16 13 9 7 5 6 5 6 10 15 14 10 3 4 3 3 3 4 6 8 10 16 15 25 27 34 27 26
22 21 18 19 20 20 21 14 12 14 8 13 14 14 10 15 13 13 8 7 9 11 9 8 9 8 12 8 14 18 13 10 7 9 3 3 6 10 19 29 28 26 35 28 29
22 18 27 22 23 24 17 8 10 11 15 11 7 7 10 13 13 8 8 5 3 7 10 12 8 6 16 13 15 17 11 5 3 4 7 8 8 9 16 18 20 27 29 22 25
22 19 20 22 18 22 17 16 14 10 6 10 13 12 10 11 7 12 11 8 9 11 4 5 3 5 3 7 6 5 2 10 15 11 15 7 6 9 23 18 23 22 19 25 22
23 18 22 24 23 21 18 16 14 10 9 9 10 9 9 11 10 15 12 10 8 10 12 11 7 6 6 11 15 21 23 22 16 13 14 21 26 19 24 23 18 17 20 18 18
20 19 20 21 20 22 19 13 13 12 10 9 8 8 11 10 11 11 15 14 12 10 12 11 10 13 15 16 19 22 26 26 28 27 28 30 27 27 24 18 23 12 14 15 11
16 18 22 17 17 17 16 11 11 10 10 10 8 9 9 8 7 7 12 12 13 12 12 12 10 12 22 20 22 27 32 31 29 29 30 29 34 29 16 10 13 12 17 14 7
20 17 21 20 20 18 16 17 12 8 9 7 9 7 5 6 9 13 16 16 16 17 16 19 17 13 14 14 17 23 15 22 27 29 25 27 25 25 19 18 11 9 17 15 10
Wind_Direction
278 279 282 285 287 286 286 290 291 292 290 286 285 289 288 282 281 284 284 274 269 267 264 259 258 256 250 249 249 247 244 248 251 259 269 274 274 257 264 265 256 255 298 295 263
276 279 280 285 285 282 283 285 289 290 292 291 288 288 292 293 289 288 282 280 272 262 258 258 253 247 245 245 242 242 247 254 264 269 271 272 272 267 269 266 250 245 243 252 252
277 278 279 276 282 280 280 285 285 288 288 288 289 290 295 298 296 292 290 273 262 255 248 245 249 253 247 245 242 249 252 262 267 270 272 275 266 261 264 262 261 245 240 243 254
271 274 277 276 279 280 283 279 284 282 286 286 287 289 292 295 296 290 273 263 256 251 245 242 244 251 256 252 252 251 255 264 267 267 269 269 274 261 247 264 270 259 251 260 253
268 269 270 273 271 279 280 280 284 283 281 281 286 288 289 286 297 271 267 261 256 252 250 258 258 252 250 254 251 254 264 265 272 272 267 268 264 268 259 251 257 273 267 271 268
265 270 268 271 272 278 278 275 277 282 279 281 281 282 283 285 287 272 262 260 258 256 251 250 251 243 240 240 240 249 248 250 255 256 258 266 271 272 272 274 270 271 270 268 268
261 262 266 270 268 274 270 273 280 278 277 278 275 276 277 290 278 269 268 258 255 249 242 237 238 234 238 245 242 253 261 262 265 274 276 282 274 273 279 278 275 273 274 271 268
255 264 266 256 266 270 267 268 273 272 273 277 270 270 275 280 271 272 266 253 245 237 238 234 237 234 241 247 249 255 266 276 277 285 286 281 273 277 288 283 272 273 272 266 265
251 255 262 259 263 261 265 268 263 270 269 274 267 268 281 277 267 254 253 249 242 226 225 220 226 234 239 252 261 264 263 269 281 292 289 277 281 285 284 281 279 282 282 278 269
250 257 258 267 266 265 261 262 261 268 263 271 266 269 267 263 262 250 241 226 237 221 209 218 224 233 240 239 243 260 271 279 287 284 289 293 275 283 287 292 291 291 287 280 280
252 258 260 270 277 273 279 261 262 260 265 260 263 263 255 249 246 235 218 196 209 211 210 222 222 232 244 255 263 267 270 276 275 292 295 292 291 294 299 299 301 299 296 293 280
255 262 259 259 268 277 275 265 266 258 264 262 252 245 233 243 230 218 220 223 220 222 220 221 233 245 243 233 245 253 269 279 291 309 296 300 291 293 298 306 309 301 295 287 273
258 250 258 261 263 269 276 272 268 253 260 257 246 244 218 229 222 235 231 231 237 232 227 232 231 210 228 225 257 262 276 289 292 303 293 301 294 298 305 306 291 298 318 299 279
250 247 247 263 262 267 267 255 249 227 271 265 236 234 214 214 234 215 211 225 227 232 218 242 249 236 240 245 258 272 278 289 286 294 297 303 300 307 320 286 291 296 317 312 287
239 244 251 248 249 250 245 229 185 209 271 214 213 211 207 209 219 199 185 185 217 222 206 215 196 210 232 245 257 277 288 281 286 289 299 304 271 290 303 321 315 303 308 311 308
231 235 238 242 239 233 209 178 187 172 240 207 182 183 182 184 172 171 173 179 202 217 226 244 230 235 258 258 260 274 282 284 288 289 281 294 239 278 305 312 310 313 314 321 302
246 246 245 219 214 205 184 191 177 206 184 192 182 183 180 170 169 186 183 206 220 207 228 243 248 258 269 278 268 271 264 311 300 222 238 286 315 275 292 310 329 329 326 324 312
244 237 217 203 195 193 191 177 216 226 215 188 190 178 177 172 195 183 190 213 220 233 246 239 224 189 218 275 312 285 268 211 233 212 275 297 260 283 304 308 313 321 331 322 324
233 206 201 190 196 179 185 193 214 251 196 168 162 176 171 175 163 178 182 193 207 214 215 218 225 206 255 283 317 318 267 272 245 265 295 259 271 284 288 321 327 338 331 342 350
216 199 202 192 177 205 196 196 216 234 179 178 168 185 165 166 158 169 177 181 188 192 216 253 277 255 251 273 266 338 271 264 177 271 242 255 267 278 298 325 327 328 322 334 346
175 165 175 187 193 192 191 197 223 213 190 184 196 187 172 160 172 159 180 184 212 236 250 282 276 258 276 281 303 296 295 294 299 242 257 294 263 299 301 307 310 318 321 324 339
162 170 173 178 196 197 190 193 203 209 206 211 214 197 172 189 171 160 163 183 288 274 285 275 286 293 293 303 271 275 271 257 265 326 314 286 286 323 305 301 301 312 310 314 328
176 174 177 173 173 188 185 204 198 193 191 212 220 221 205 178 158 168 186 199 253 273 270 287 302 332 353 109 101 198 335 325 311 293 249 256 253 285 311 302 291 294 304 313 313
156 171 179 180 191 186 187 195 205 205 221 209 195 182 194 178 170 165 172 197 231 268 282 300 289 275 238 267 283 289 294 296 290 266 275 281 295 306 313 315 270 269 275 295 312
177 166 170 181 179 196 203 215 210 209 213 196 184 193 190 177 183 188 205 223 239 260 277 290 279 281 281 277 283 296 295 288 274 265 251 270 283 300 304 291 301 250 280 309 330
173 177 192 190 194 193 197 185 196 188 192 190 188 186 192 205 211 229 244 254 261 257 262 262 277 279 279 280 291 302 293 278 267 260 254 257 270 279 272 276 270 293 290 308 332
188 198 184 183 183 189 200 193 187 188 160 186 189 207 238 264 272 275 276 276 272 275 277 281 270 270 272 302 303 291 295 297 278 261 249 241 260 268 266 259 239 311 305 298 314
Height
3114 3114 3113 3113 3111 3111 3110 3109 3108 3106 3104 3103 3101 3099 3097 3096 3096 3095 3094 3092 3092 3090 3089 3089 3089 3088 3089 3088 3089 3089 3085 3077 3079 3086 3087 3095 3092 3097 3096 3094 3096 3097 3097 3095 3093
3107 3106 3106 3107 3106 3105 3104 3103 3102 3101 3099 3097 3095 3094 3091 3091 3090 3090 3088 3087 3085 3084 3084 3083 3082 3081 3082 3083 3082 3082 3075 3074 3079 3084 3083 3086 3087 3087 3087 3087 3090 3092 3094 3093 3090
3100 3099 3098 3099 3099 3098 3098 3097 3096 3094 3093 3091 3089 3088 3086 3086 3085 3082 3080 3079 3079 3079 3078 3078 3077 3076 3077 3077 3077 3074 3068 3075 3075 3079 3079 3078 3079 3082 3078 3078 3084 3085 3086 3087 3089
3092 3092 3092 3091 3091 3090 3090 3090 3088 3088 3086 3084 3082 3081 3079 3081 3085 3078 3077 3077 3076 3076 3076 3075 3075 3073 3073 3071 3075 3069 3067 3070 3071 3075 3074 3071 3073 3072 3073 3073 3077 3079 3081 3080 3082
3082 3082 3083 3083 3082 3083 3082 3083 3081 3081 3079 3076 3075 3074 3073 3072 3078 3071 3070 3072 3071 3072 3072 3071 3070 3069 3068 3068 3069 3064 3066 3068 3068 3069 3068 3067 3066 3066 3066 3070 3072 3072 3074 3074 3075
3072 3073 3074 3074 3075 3074 3075 3075 3074 3072 3071 3068 3066 3066 3064 3065 3066 3063 3063 3065 3065 3065 3065 3066 3064 3062 3062 3062 3063 3062 3061 3061 3062 3063 3062 3061 3061 3062 3062 3064 3065 3065 3065 3067 3068
3061 3062 3063 3064 3066 3066 3065 3066 3066 3065 3063 3060 3058 3056 3054 3064 3058 3056 3059 3059 3059 3060 3060 3062 3060 3059 3058 3060 3060 3058 3057 3056 3060 3061 3059 3058 3052 3056 3058 3058 3057 3058 3058 3058 3058
3049 3048 3052 3052 3055 3056 3056 3056 3056 3056 3055 3053 3051 3048 3041 3055 3050 3052 3051 3054 3054 3055 3056 3056 3056 3056 3056 3057 3056 3055 3054 3053 3056 3057 3058 3057 3038 3051 3053 3051 3050 3049 3049 3049 3049
3037 3039 3040 3040 3044 3043 3044 3046 3045 3047 3046 3044 3044 3040 3038 3042 3043 3043 3044 3048 3049 3050 3052 3052 3052 3052 3053 3052 3052 3052 3050 3051 3052 3055 3052 3053 3040 3045 3048 3045 3043 3043 3044 3043 3042
3025 3026 3027 3032 3033 3031 3033 3033 3033 3037 3035 3036 3035 3038 3036 3037 3037 3037 3040 3041 3043 3045 3047 3046 3046 3048 3048 3045 3045 3046 3047 3047 3049 3052 3049 3048 3035 3040 3042 3039 3037 3035 3035 3035 3034
3014 3017 3021 3021 3023 3024 3025 3023 3027 3028 3025 3028 3026 3027 3027 3028 3032 3035 3036 3037 3039 3041 3042 3042 3041 3041 3043 3044 3044 3044 3043 3042 3046 3047 3044 3045 3037 3033 3035 3032 3029 3029 3027 3024 3021
3004 3007 3012 3014 3016 3015 3018 3016 3018 3017 3015 3015 3015 3015 3022 3025 3026 3031 3033 3034 3034 3035 3038 3039 3033 3039 3042 3041 3040 3040 3039 3038 3041 3044 3042 3041 3030 3030 3029 3025 3023 3020 3016 3011 3008
2995 2998 3000 3004 3005 3008 3010 3011 3011 3010 3007 3004 3008 3008 3017 3019 3020 3024 3028 3030 3028 3031 3032 3032 3034 3035 3037 3037 3037 3036 3035 3035 3037 3039 3039 3035 3021 3019 3020 3021 3019 3017 3011 3004 3000
2984 2987 2989 2995 3000 3000 3002 3003 3004 3007 3008 2998 2997 3000 3006 3013 3012 3019 3021 3026 3025 3026 3030 3029 3029 3031 3033 3033 3035 3033 3034 3033 3034 3034 3032 3034 3027 3006 3013 3014 3013 3009 3005 3000 2996
2971 2977 2981 2985 2988 2992 2997 2999 3003 3010 3009 2994 2993 2995 3000 3005 3010 3012 3018 3020 3022 3024 3025 3024 3025 3027 3029 3030 3032 3030 3031 3032 3031 3031 3027 3026 3028 3006 3011 3006 3006 3003 2999 2995 2991
2965 2969 2975 2978 2981 2985 2990 2995 3002 3009 3000 2991 2989 2990 2994 3002 3006 3011 3013 3017 3020 3021 3021 3021 3024 3025 3026 3027 3029 3029 3029 3029 3029 3028 3024 3016 3021 3009 3008 3004 3000 2998 2994 2988 2980
2962 2965 2967 2968 2974 2981 2986 2993 3002 2996 2989 2989 2988 2990 2994 2999 3002 3007 3010 3013 3015 3019 3018 3018 3019 3021 3022 3022 3023 3024 3026 3027 3027 3026 3021 3017 3013 3007 3004 3001 2998 2993 2987 2981 2971
2958 2960 2962 2966 2973 2977 2984 2991 2991 2984 2985 2985 2989 2991 2994 2997 3001 3004 3009 3010 3012 3013 3014 3014 3016 3016 3016 3018 3019 3020 3021 3023 3022 3020 3013 3013 3007 3002 3002 2999 2995 2988 2982 2977 2970
2956 2959 2961 2966 2971 2976 2983 2985 2985 2983 2985 2984 2986 2990 2992 2993 2998 3002 3005 3007 3007 3008 3013 3011 3011 3012 3012 3015 3017 3017 3016 3017 3016 3014 3012 3005 3002 3000 2999 2996 2992 2985 2980 2975 2970
2953 2957 2960 2965 2970 2977 2980 2981 2983 2982 2982 2984 2985 2988 2990 2992 2996 3000 3002 3005 3005 3006 3008 3007 3008 3008 3012 3013 3014 3015 3016 3015 3014 3014 3008 3000 2998 2997 2997 2994 2989 2984 2980 2976 2971
2952 2956 2961 2966 2971 2975 2977 2981 2981 2983 2983 2985 2987 2988 2989 2991 2994 2996 2999 3002 3002 3003 3005 3005 3005 3006 3007 3009 3010 3010 3011 3014 3013 3013 3005 3002 2996 2997 2996 2992 2988 2984 2980 2975 2972
2952 2958 2962 2966 2972 2974 2977 2979 2978 2980 2983 2985 2986 2987 2988 2991 2994 2995 2997 2999 3000 3001 3002 3003 3002 3002 3004 3006 3006 3007 3007 3008 3011 3006 3004 3003 2997 2994 2992 2992 2988 2983 2978 2976 2974
2955 2958 2960 2964 2969 2973 2977 2978 2980 2979 2981 2983 2985 2986 2988 2990 2993 2994 2995 2997 2998 2999 3000 3000 3001 3001 3002 3005 3004 3004 3005 3007 3008 3005 3000 3001 2993 2991 2989 2988 2985 2982 2978 2975 2972
2955 2957 2961 2965 2968 2971 2974 2976 2978 2979 2981 2982 2983 2985 2986 2987 2990 2992 2994 2995 2996 2997 2998 3000 3000 3000 3001 3001 3002 3001 3001 3003 3006 3002 2998 2993 2990 2989 2986 2982 2981 2978 2976 2973 2970
2954 2956 2960 2963 2967 2970 2973 2975 2976 2978 2979 2981 2982 2983 2984 2986 2988 2990 2992 2994 2996 2997 2997 2999 2998 2997 2996 2996 2996 2996 2995 2995 2994 2993 2992 2988 2986 2987 2983 2980 2979 2977 2975 2972 2969
2953 2956 2961 2963 2966 2969 2971 2974 2974 2975 2977 2979 2980 2981 2983 2985 2987 2988 2991 2992 2993 2994 2994 2995 2995 2994 2992 2993 2993 2989 2986 2983 2981 2981 2981 2983 2980 2981 2979 2978 2978 2974 2973 2970 2969
2954 2957 2960 2962 2965 2968 2969 2971 2973 2975 2977 2979 2980 2981 2982 2983 2984 2985 2986 2987 2988 2988 2989 2991 2993 2994 2990 2990 2989 2985 2980 2976 2969 2970 2973 2974 2976 2976 2976 2976 2973 2972 2971 2969 2967